This is the latest recevied weather packets stored in our database for station/object KC4JIR. If no packets are shown the sender has not sent any weather packets the latest 10 day(s).
| Time | Temp. | Humidity | Pressure | Rain* | Wind** | Luminosity | Snow |
|---|---|---|---|---|---|---|---|
| 1777722488 | 12.78° C | 99% | 1009.7 hPa | 0 mm | - | 8 W/m² | - |
| 1777722185 | 12.78° C | 99% | 1009.7 hPa | 0 mm | - | 4 W/m² | - |
| 1777721883 | 12.78° C | 99% | 1009.9 hPa | 1.78 mm | - | 2 W/m² | - |
| 1777721580 | 12.78° C | 99% | 1009.3 hPa | 1.78 mm | - | 5 W/m² | - |
| 1777721278 | 12.78° C | 99% | 1009.5 hPa | 1.27 mm | - | 7 W/m² | - |
| 1777720975 | 12.78° C | 99% | 1009.5 hPa | 3.05 mm | - | 4 W/m² | - |
| 1777720672 | 12.78° C | 99% | 1009.6 hPa | 8.89 mm | - | 3 W/m² | - |
| 1777720369 | 12.78° C | 99% | 1009.8 hPa | 7.11 mm | - | 1 W/m² | - |
| 1777719765 | 12.22° C | 99% | 1010.1 hPa | 0 mm | - | 0 W/m² | - |
| 1777719463 | 12.22° C | 99% | 1010 hPa | 3.05 mm | - | 0 W/m² | - |
| 1777719158 | 12.22° C | 99% | 1009.8 hPa | 3.05 mm | - | 0 W/m² | - |
| 1777718857 | 12.22° C | 99% | 1009.6 hPa | 3.05 mm | - | 0 W/m² | - |
| 1777718554 | 12.22° C | 99% | 1009.5 hPa | 6.6 mm | - | 0 W/m² | - |
| 1777718251 | 12.22° C | 99% | 1009.6 hPa | 3.56 mm | - | 0 W/m² | - |
| 1777717949 | 11.67° C | 99% | 1009.4 hPa | 1.27 mm | - | 0 W/m² | - |
| 1777717645 | 12.22° C | 99% | 1009.4 hPa | 3.05 mm | - | 0 W/m² | - |
| 1777717342 | 12.22° C | 99% | 1009.5 hPa | 3.05 mm | - | 0 W/m² | - |
| 1777717040 | 11.67° C | 99% | 1009.5 hPa | 1.27 mm | - | 0 W/m² | - |
| 1777716738 | 11.67° C | 99% | 1009.2 hPa | 0 mm | - | 0 W/m² | - |
| 1777716436 | 11.67° C | 99% | 1009.1 hPa | 0 mm | - | 0 W/m² | - |
| 1777716134 | 11.67° C | 99% | 1009.3 hPa | 0 mm | - | 0 W/m² | - |
| 1777715832 | 11.67° C | 99% | 1009.5 hPa | 0 mm | - | 0 W/m² | - |
| 1777715529 | 11.67° C | 99% | 1009.2 hPa | 0 mm | - | 0 W/m² | - |
| 1777715227 | 11.67° C | 99% | 1009 hPa | 1.78 mm | - | 0 W/m² | - |
| 1777714925 | 12.22° C | 99% | 1009.2 hPa | 1.78 mm | - | 0 W/m² | - |
* Rain latest hour (hover to see other rain measurements)
** Current wind speed in m/s (hover to see current wind gust speed)